Regional Weather Roundup
Issued by NWS Boston, MA

Home | Current Version | Previous Version | Text Only | Print | Product List | Glossary On
Versions: 1 2 3 4 5 6 7 8 9 10 11 12 13 14 15 16 17 18 19 20 21 22 23 24 25 26 27 28 29 30 31 32 33 34 35 36 37 38 39 40 41 42 43 44 45 46 47 48 49 50
000
ASUS41 KBOX 270210
RWRBOX

REGIONAL WEATHER ROUNDUP
NATIONAL WEATHER SERVICE TAUNTON MA
1000 PM EDT THU MAR 26 2015

NOTE:  "FAIR" INDICATES FEW OR NO CLOUDS BELOW 12,000 FEET WITH NO
SIGNIFICANT WEATHER AND/OR OBSTRUCTIONS TO VISIBILITY.  THE FOLLOWING
OBSERVATION LOCATIONS DO NOT REPORT PRESENT WEATHER...PROVINCETOWN...
SMITHFIELD...BLOCK ISLAND...KEENE...AND OXFORD.

MAZALL-270300-
EASTERN MASSACHUSETTS

CITY           SKY/WX    TMP DP  RH WIND       PRES   REMARKS
BOSTON         RAIN      46  45  93 NW9       29.67R FOG
BEVERLY        LGT RAIN  44  42  93 N9        29.65F FOG
LAWRENCE       CLOUDY    43  42  97 N9        29.69S
BEDFORD        LGT RAIN  42  42 100 N5        29.65F FOG
BLUE HILL        N/A     43  43 100 N15       29.63R
NORWOOD        RAIN      46  45  96 NW3       29.66R FOG
MARSHFIELD     LGT RAIN  54  54 100 NW7       29.65R
PLYMOUTH       CLOUDY    50  50 100 SW14      29.64S FOG
TAUNTON        CLOUDY    53  51  93 S9G18     29.63S
NEW BEDFORD    CLOUDY    54  53  97 SW15G26   29.64S
$$

MAZALL-270300-
CAPE COD AND THE ISLANDS

CITY           SKY/WX    TMP DP  RH WIND       PRES   REMARKS
FALMOUTH       CLOUDY    55  54  94 S24G38    29.63S FOG
HYANNIS        LGT RAIN  47  46  97 SW21G29   29.63F VSB 1
CHATHAM        CLOUDY    47  47 100 SW18G29   29.65F FOG
PROVINCETOWN   CLOUDY    50  45  81 SW16      29.63F
NANTUCKET      LGT RAIN  46  44  93 S21       29.68F VSB 3/4
MARTHAS VNYRD  LGT RAIN  48  45  89 S18G29    29.65F FOG
$$

MAZALL-270300-
CENTRAL AND WESTERN MASSACHUSETTS

CITY           SKY/WX    TMP DP  RH WIND       PRES   REMARKS
WORCESTER      CLOUDY    42  40  92 N12       29.64F
FITCHBURG      CLOUDY    41  40  96 NW5       29.68R FOG
ORANGE         LGT RAIN  39  38  96 N5        29.67S
SPRINGFIELD    LGT RAIN  41  40  95 N5        29.68F
WESTFIELD      LGT RAIN  42  40  92 E3        29.68S FOG
NORTH ADAMS    LGT RAIN  37  35  92 W6        29.74R FOG
PITTSFIELD     RAIN      37  36  96 NW8       29.70R FOG     WCI  31
$$

RIZALL-270300-
RHODE ISLAND

CITY           SKY/WX    TMP DP  RH WIND       PRES   REMARKS
PROVIDENCE     CLOUDY    57  55  93 SW18G25   29.64R
NEWPORT        FOG       48  48 100 VRB6      29.64R VSB 1
BLOCK ISLAND   CLOUDY    48  45  87 S17G26    29.61F
SMITHFIELD     CLOUDY    54  50  87 NW15      29.65R
WESTERLY       FOG       52  52 100 W10G18    29.65S VSB 3/4
$$

CTZALL-270300-
CONNECTICUT

CITY           SKY/WX    TMP DP  RH WIND       PRES   REMARKS
BRADLEY INTL   LGT RAIN  43  41  93 N7        29.68R FOG
HARTFORD       LGT RAIN  44  42  93 VRB7      29.68S FOG
BRIDGEPORT     CLOUDY    52  51  97 NW13      29.63F FOG
DANBURY        LGT RAIN  44  40  85 N6        29.69R
GROTON         CLOUDY    54  54 100 W13       29.64S FOG
NEW HAVEN      CLOUDY    54  53  97 N7        29.63S FOG
CHESTER        DRIZZLE   54  54 100 W6        29.65R
MERIDEN        LGT RAIN  48  45  89 N10       29.66S FOG
WILLIMANTIC    CLOUDY    49  46  90 N13       29.66R
OXFORD         CLOUDY    45  39  81 N10       29.68R
$$

MEZ002-015-021-024-NHZ003-005-008-011-012-014-VTZ005-008-270300-
NORTHERN NEW ENGLAND

CITY           SKY/WX    TMP DP  RH WIND       PRES   REMARKS
PORTLAND ME    LGT RAIN  44  41  89 NW9       29.71R FOG
BANGOR ME      LGT RAIN  35  35 100 CALM      29.69S FOG
CONCORD NH     LGT RAIN  40  39  97 NW9       29.69S
MANCHESTER NH  CLOUDY    42  42 100 N6        29.64F
NASHUA NH      LGT RAIN  43  42  96 CALM      29.67F
PORTSMOUTH NH  LGT RAIN  41  40  97 N9        29.66S VSB 1
JAFFREY NH     LGT RAIN  36  36 100 CALM      29.67R VSB 3/4
KEENE NH       CLOUDY    39  39 100 NE5       29.69S
BURLINGTON VT  LGT RAIN  36  33  89 NE3       29.75S
MT. WASHINGTON SNOW      21  21 100 NW32        N/A  VSB 1/16WCI   2
$$

NYZ052-076-270300-
EASTERN NEW YORK

CITY           SKY/WX    TMP DP  RH WIND       PRES   REMARKS
ALBANY         LGT RAIN  38  36  92 VRB3      29.76S FOG
NEW YORK CITY  LGT RAIN  52  48  86 N15       29.64R
$$

ANZALL-270300-
MARINE OBSERVATIONS

STATION/POSITION TIME  TEMP    WIND        PRES    VSBY  WAVE
                       AIR SEA DIR/SP/G                  HT/PER
                 (UTC) (F)     (DEG/KT/KT) (MB)    (MI)  (FT/S)
BOSTON BUOY      0150   40 38  350/  8/ 10 1003.9F         1/ 4
BUZZARDS BAY     0100          190/ 26/ 28 1003.6F
NANTUCKET SOUND  0150   44 36  190/ 23/ 27 1003.8F         3/ 4
MASS BAY-STELLWA 0104   41 37  360/  6/  8   N/A     5/16  2/ 5
ISLE OF SHOALS   0200   43     340/ 16/ 16 1004.3R
S OF BLOCK IS    0108      38                N/A           8/ 9
$$

......................KEY.........................
  SKY/WX - SKY CONDITION/PRESENT WEATHER
  TMP    - TEMPERATURE IN FAHRENHEIT
  DWPT   - DEWPOINT IN FAHRENHEIT
  RH     - RELATIVE HUMIDITY IN PERCENT
  WIND   - DIRECTION AND SPEED IN MPH
  PRES   - MEAN SEA LEVEL PRESSURE IN INCHES OF HG
  WCI    - WIND CHILL INDEX
  VSB    - VISIBILITY IN MILES
  HX     - HEAT INDEX
  TC     - TEMPERATURE IN CELSIUS
  VRB    - VARIABLE WIND DIRECTION
  N/A    - NOT AVAILABLE



USA.gov is the U.S. government's official web portal to all federal, state and local government web resources and services.